This demonstration page uses our WeatherBlox Daily Observations layout. Learn more.

Left ArrowRight Arrow

36.19886, -115.1175

Hourly Observations for June 20, 2021

Temp ( °F °C ) Dew Point ( °F °C ) Humidity (%) Winds ( mph kmh ) Pressure ( in mb ) Visibility ( mi km ) Precip ( " mm )
12:53 am 00:53 Clear 98 36.7 37 2.8 12 12 N 7 11 29.56 1001 10 16 N/A
1:53 am 01:53 Clear 95 35 38 3.3 14 14 W 3 6 29.57 1001 10 16 N/A
2:53 am 02:53 Clear 96 35.6 37 2.8 13 13 SW 7 11 29.57 1001 10 16 N/A
3:53 am 03:53 Clear 97 36.1 37 2.8 12 12 SSW 7 11 29.58 1002 10 16 N/A
4:53 am 04:53 Clear 95 35 38 3.3 14 14 WSW 7 11 29.60 1002 10 16 N/A
5:53 am 05:53 Sunny 94 34.4 37 2.8 14 14 E 3 6 29.62 1003 10 16 N/A
6:53 am 06:53 Sunny 93 33.9 38 3.3 14 14 E 3 6 29.63 1003 10 16 N/A
7:53 am 07:53 Sunny 97 36.1 40 4.4 14 14 N N/A 29.65 1004 10 16 N/A
8:53 am 08:53 Sunny 104 40 37 2.8 10 10 SE 3 6 29.65 1004 10 16 N/A
9:53 am 09:53 Sunny 107 41.7 36 2.2 9 9 ESE 6 9 29.64 1004 10 16 N/A
10:53 am 10:53 Sunny 109 42.8 35 1.7 8 8 ESE 8 13 29.64 1004 10 16 N/A
11:53 am 11:53 Sunny 111 43.9 31 -0.6 6 6 SE 9 15 29.63 1003 10 16 N/A
12:53 pm 12:53 Sunny 113 45 31 -0.6 6 6 SSE 16 26 29.61 1003 10 16 N/A
1:53 pm 13:53 Sunny 114 45.6 23 -5 4 4 SSE 20 31 29.60 1002 10 16 N/A
2:53 pm 14:53 Sunny 113 45 27 -2.8 5 5 S 12 19 29.58 1002 10 16 N/A
3:53 pm 15:53 Sunny 113 45 27 -2.8 5 5 S 10 17 29.57 1001 10 16 N/A
4:53 pm 16:53 Sunny 113 45 27 -2.8 5 5 SW 15 24 29.56 1001 10 16 N/A
5:53 pm 17:53 Sunny 112 44.4 29 -1.7 6 6 SW 16 26 29.55 1001 10 16 N/A
6:53 pm 18:53 Sunny 111 43.9 29 -1.7 6 6 SW 15 24 29.56 1001 10 16 N/A
7:53 pm 19:53 Sunny 108 42.2 29 -1.7 6 6 SW 16 26 29.57 1001 10 16 N/A
8:53 pm 20:53 Clear 105 40.6 28 -2.2 7 7 SW 18 30 29.58 1002 10 16 N/A
9:53 pm 21:53 Clear 103 39.4 30 -1.1 8 8 SW 20 31 29.61 1003 10 16 N/A
10:53 pm 22:53 Clear 101 38.3 31 -0.6 8 8 SW 14 22 29.62 1003 10 16 N/A
11:53 pm 23:53 Clear 99 37.2 30 -1.1 9 9 SW 15 24 29.62 1003 10 16 N/A

Powered by AerisWeather